Wind_Speed
15 15 14 13 12 10 8 7 4 3 6 9 12 15 16 14 15 15 16 18 17 16 16 15 12 10 8 9 10 12 14 16 17 18 18 20 21 21 20 21 20 20 20 22 21
18 19 18 16 15 14 12 11 8 6 6 7 10 12 14 13 13 13 15 16 17 16 17 17 17 19 16 13 13 12 13 15 16 18 19 22 22 21 20 20 19 20 22 22 23
21 21 21 20 18 18 16 15 12 10 8 8 8 9 11 13 13 12 14 15 16 17 16 17 19 20 18 16 14 14 15 16 17 18 19 21 22 20 20 19 20 20 20 23 25
25 24 24 24 22 21 20 19 17 14 13 11 9 8 9 11 12 12 13 14 14 16 16 16 18 20 20 19 18 18 17 18 18 20 19 19 20 21 19 18 17 18 21 23 25
28 28 27 27 26 26 25 24 21 19 17 15 13 11 9 10 11 13 13 13 15 16 17 17 18 18 18 18 18 19 18 19 21 22 24 23 22 23 21 20 20 22 24 26 30
31 31 30 30 30 29 29 28 26 23 21 20 19 16 14 12 11 13 13 14 16 17 19 19 19 19 19 18 17 18 19 20 23 24 25 25 24 26 25 25 26 27 29 31 32
33 34 34 33 33 33 32 31 30 29 27 25 23 22 20 17 15 15 15 15 16 18 19 22 22 22 22 21 19 18 20 23 25 26 27 27 23 28 27 26 27 28 30 32 34
34 35 36 37 37 36 36 35 34 33 32 30 29 27 25 23 20 20 19 18 18 20 21 23 25 24 24 22 23 24 26 27 29 31 30 29 24 33 32 31 30 31 31 33 34
35 35 36 38 39 39 39 39 38 36 36 34 33 31 30 27 26 26 24 23 22 22 24 24 27 28 29 28 27 27 27 28 32 35 35 34 27 31 32 33 33 33 34 35 34
37 36 37 37 40 42 43 43 42 41 39 38 37 35 33 31 31 31 28 28 27 26 27 27 29 30 33 34 33 31 29 29 33 37 38 39 36 36 38 34 33 34 34 35 35
40 39 39 39 40 42 46 47 46 45 43 41 40 38 36 35 33 33 31 31 30 31 30 29 31 33 35 37 37 35 35 34 34 39 46 42 45 38 41 36 38 38 38 39 41
44 42 42 41 41 43 45 47 50 51 48 45 43 40 38 37 36 36 36 34 33 33 32 35 34 36 37 40 41 39 39 37 37 40 46 45 49 46 41 34 40 40 40 41 44
46 45 44 44 43 43 44 47 49 51 53 49 45 41 37 37 38 38 40 39 36 34 37 40 40 40 40 40 44 42 43 43 44 44 46 50 53 50 36 37 37 39 39 39 43
49 48 46 47 46 45 45 46 47 49 56 52 50 44 40 38 39 40 41 40 40 41 42 44 42 43 42 42 45 47 43 45 47 48 52 50 56 55 51 46 46 45 45 46 50
52 51 50 50 49 48 50 49 49 48 61 53 48 45 43 43 43 42 44 45 47 46 46 45 46 46 44 44 45 48 48 48 49 49 55 51 60 60 52 54 52 50 50 50 52
55 54 53 51 52 52 52 53 53 57 65 56 50 46 44 45 49 50 50 49 49 50 50 48 49 49 48 49 48 49 50 51 52 52 58 57 61 61 53 57 56 52 54 55 56
58 57 57 55 54 54 55 56 58 66 60 57 53 50 47 49 51 53 54 55 52 52 52 53 52 52 51 52 51 52 51 54 57 57 61 61 66 57 62 57 60 57 56 58 56
60 61 59 59 57 58 59 62 70 66 60 56 55 54 55 54 54 55 57 57 54 54 54 55 57 54 56 54 54 53 51 54 58 61 64 65 66 65 63 59 57 58 59 62 59
58 60 62 61 63 62 63 71 72 67 66 62 60 61 60 58 57 59 59 60 56 53 51 56 59 59 60 58 55 52 54 56 60 61 66 70 67 67 66 61 61 60 63 63 61
63 64 64 61 64 67 71 79 78 71 67 63 63 65 67 64 65 64 64 65 61 55 52 55 56 60 61 61 59 56 58 57 63 64 70 72 71 68 67 66 64 63 64 62 61
68 69 66 66 70 70 74 74 71 67 69 68 69 67 65 65 66 67 66 66 62 58 56 54 54 58 64 64 61 61 60 61 64 70 73 76 69 70 66 68 66 66 65 60 59
71 75 73 70 72 75 77 74 72 70 66 68 68 68 70 69 68 69 69 64 62 60 59 59 60 66 66 70 68 65 63 63 68 72 76 77 69 64 70 72 69 73 68 62 59
79 78 79 80 81 80 78 77 74 75 74 72 73 72 70 71 72 70 66 65 66 67 64 61 69 73 76 77 74 71 67 65 69 75 79 76 77 72 76 74 71 73 67 58 57
80 80 88 87 80 82 82 78 80 78 78 78 75 74 76 74 73 73 71 70 70 67 67 67 72 79 81 78 74 74 70 70 73 80 73 80 80 68 72 64 66 66 56 55 49
87 90 93 93 84 85 86 82 78 86 84 79 78 77 71 74 74 75 71 70 69 72 70 71 79 78 79 80 78 75 74 76 76 77 79 75 82 81 69 61 65 59 59 50 48
89 91 96 93 95 91 93 82 83 82 83 82 83 76 77 82 76 74 75 75 74 74 77 79 80 76 82 82 79 78 72 78 75 75 77 79 84 62 54 58 57 54 46 48 55
80 75 84 94 94 95 98 93 88 81 86 86 80 82 86 82 71 70 76 80 77 75 76 81 85 85 87 78 80 80 71 74 73 69 77 77 70 55 55 58 49 42 46 54 59
Wind_Direction
225 226 235 240 246 252 262 280 300 323 346 0 1 13 12 14 19 20 30 33 33 35 30 20 8 352 342 334 324 318 307 296 291 289 285 284 285 287 292 296 299 302 305 305 298
228 228 234 238 243 247 253 265 278 285 306 334 346 359 11 7 12 10 18 22 22 22 22 20 13 5 353 343 340 334 322 311 302 297 295 291 292 294 294 293 293 295 298 296 293
234 236 238 240 242 244 245 253 261 268 275 298 319 341 359 3 358 0 3 8 12 12 6 6 8 3 0 351 334 334 333 327 318 311 301 295 294 291 290 288 286 286 288 292 298
236 238 239 244 246 246 246 247 250 254 258 266 284 308 333 347 349 345 349 352 358 0 356 348 356 1 355 352 346 335 326 321 320 318 313 306 303 301 300 296 297 295 293 297 299
238 238 240 242 246 248 249 249 249 252 252 257 264 276 297 319 330 334 337 338 341 343 345 341 342 350 351 350 344 336 330 324 322 318 314 312 309 304 301 301 299 298 300 299 298
240 238 237 240 245 248 248 250 252 252 253 253 258 264 273 287 302 312 322 325 328 327 333 334 332 337 338 338 340 336 332 332 329 322 316 314 318 306 305 303 302 296 294 295 295
243 241 238 239 242 246 250 249 252 254 255 254 255 260 265 273 282 293 303 308 314 314 320 326 324 328 327 325 324 322 320 323 323 322 317 312 314 306 303 299 294 291 290 289 291
245 244 244 239 240 244 248 251 251 254 256 257 257 258 261 268 275 282 289 295 300 307 309 317 317 318 320 315 317 315 316 314 313 313 315 310 312 304 302 300 298 295 293 292 288
250 249 249 246 244 246 249 251 253 254 256 258 259 259 261 265 272 278 283 286 292 299 304 305 311 312 313 310 309 312 311 312 312 310 313 310 310 304 303 300 297 296 295 296 292
248 251 252 253 252 250 251 253 255 256 259 259 259 259 263 264 268 273 281 282 288 294 296 298 305 305 308 307 305 307 308 310 310 309 308 311 309 311 307 306 296 294 299 296 293
250 252 254 255 256 256 257 257 259 259 260 262 262 260 263 266 268 274 278 280 283 290 289 294 300 301 305 304 301 303 305 306 304 306 311 312 313 316 312 309 305 300 298 298 297
253 256 259 260 261 261 259 260 261 262 261 262 264 264 265 267 268 273 277 280 283 285 286 293 296 297 300 301 299 300 301 300 303 302 306 309 311 312 309 310 302 305 302 297 294
253 256 259 262 264 263 263 262 263 264 264 260 265 268 270 272 276 279 281 283 283 282 285 289 294 296 298 300 296 297 299 300 302 300 302 307 306 304 311 313 301 303 302 297 294
254 254 255 259 261 264 265 266 266 265 265 261 262 264 268 271 275 277 278 279 279 283 285 287 291 292 297 298 294 295 295 297 300 302 304 307 306 302 313 313 315 311 311 305 298
255 256 257 258 260 261 263 265 267 270 269 267 264 264 265 270 273 273 275 276 279 281 283 287 288 290 295 297 293 294 295 296 298 300 300 306 300 299 310 310 314 315 308 301 300
256 257 258 258 260 261 262 263 264 265 265 272 273 273 271 269 271 273 275 276 279 282 284 286 288 292 297 295 293 292 293 294 296 297 297 301 298 298 311 312 312 314 309 305 303
257 258 259 259 261 262 263 263 264 260 266 270 273 274 274 273 272 274 277 278 281 284 285 286 289 292 295 293 291 290 292 294 295 297 300 299 298 308 309 312 313 313 303 302 304
257 259 261 263 262 263 263 263 262 265 267 270 272 275 275 274 275 277 277 278 281 283 285 288 288 291 290 287 286 287 290 290 292 298 298 297 298 303 305 312 316 309 302 300 304
257 260 259 262 262 261 262 264 265 267 269 273 274 274 274 276 277 277 278 280 281 283 287 288 287 289 288 287 286 288 288 289 293 295 294 296 299 296 301 311 315 307 306 304 305
259 261 260 260 261 261 262 263 265 267 272 273 273 275 276 277 278 278 279 280 282 284 284 284 284 284 285 285 288 290 287 293 295 294 294 301 299 301 307 311 310 306 304 304 306
258 259 260 258 260 261 261 264 267 271 270 270 273 272 275 277 278 279 281 282 285 286 284 283 281 282 280 283 283 284 290 293 293 293 295 294 300 304 309 309 309 307 302 305 307
258 259 262 260 260 260 262 266 270 270 267 270 271 273 273 275 276 277 278 281 285 284 284 284 284 278 279 279 280 285 289 290 290 292 289 287 303 308 307 304 306 303 302 306 304
262 261 262 263 259 261 263 265 267 269 271 271 270 270 273 274 275 277 283 286 282 281 282 279 280 282 283 283 288 289 287 288 289 287 286 294 301 310 308 308 304 297 303 302 303
261 266 262 263 264 263 262 264 268 268 271 271 272 274 274 276 278 280 281 280 281 281 279 277 277 278 281 285 286 286 289 289 287 285 296 292 307 302 308 308 297 301 301 299 296
263 258 262 263 260 264 266 266 265 264 269 270 272 276 278 276 277 276 276 276 277 275 275 273 274 274 278 280 280 282 284 284 283 290 287 298 298 301 302 294 295 299 298 294 301
264 264 263 261 264 263 265 257 263 266 270 272 274 273 274 274 276 281 278 272 272 270 267 269 273 273 276 279 278 279 283 281 287 290 291 295 293 300 294 293 291 290 288 301 304
252 261 271 265 261 264 262 262 266 267 265 271 275 275 273 275 275 274 272 275 274 271 272 271 271 276 279 276 275 278 290 289 286 290 290 290 292 293 290 289 283 280 293 301 306
Height
5894 5895 5896 5896 5897 5897 5897 5897 5897 5896 5895 5893 5892 5890 5888 5886 5884 5882 5880 5877 5875 5872 5869 5867 5865 5863 5861 5860 5857 5855 5853 5851 5850 5848 5847 5844 5843 5842 5842 5840 5840 5838 5836 5834 5832
5891 5892 5892 5893 5893 5894 5894 5895 5895 5894 5894 5892 5891 5889 5887 5885 5883 5882 5879 5876 5874 5872 5869 5866 5863 5861 5858 5856 5854 5854 5851 5848 5846 5844 5843 5840 5840 5839 5839 5837 5835 5833 5830 5828 5825
5888 5889 5889 5889 5890 5890 5891 5891 5892 5891 5891 5890 5889 5887 5886 5884 5883 5880 5878 5875 5873 5871 5868 5865 5861 5858 5856 5854 5852 5851 5849 5846 5843 5841 5839 5835 5834 5834 5833 5832 5830 5828 5826 5824 5821
5884 5885 5885 5886 5886 5886 5887 5887 5887 5887 5887 5887 5886 5885 5883 5882 5882 5879 5876 5874 5871 5869 5867 5864 5860 5857 5853 5851 5849 5848 5846 5843 5841 5838 5835 5833 5830 5828 5829 5828 5826 5824 5822 5818 5815
5879 5880 5881 5881 5882 5883 5883 5883 5883 5883 5883 5883 5882 5881 5880 5879 5877 5876 5874 5871 5868 5866 5864 5862 5858 5855 5853 5850 5847 5844 5843 5841 5838 5835 5832 5830 5827 5824 5823 5822 5820 5818 5815 5813 5810
5873 5875 5875 5876 5877 5878 5878 5879 5879 5879 5879 5878 5878 5877 5876 5875 5873 5872 5870 5868 5865 5863 5860 5858 5856 5852 5850 5848 5845 5843 5840 5837 5835 5832 5828 5824 5822 5817 5817 5816 5814 5812 5810 5806 5803
5867 5868 5869 5870 5871 5871 5872 5873 5873 5874 5874 5873 5873 5872 5872 5871 5869 5867 5866 5864 5861 5859 5856 5853 5851 5848 5846 5844 5841 5839 5838 5834 5830 5828 5825 5822 5819 5814 5812 5811 5809 5806 5803 5800 5796
5861 5861 5863 5863 5864 5864 5865 5866 5867 5867 5867 5867 5867 5867 5867 5865 5863 5862 5860 5859 5857 5855 5852 5849 5846 5844 5842 5839 5836 5833 5831 5829 5826 5822 5821 5817 5817 5807 5805 5804 5802 5799 5796 5793 5789
5854 5855 5856 5857 5858 5858 5858 5858 5859 5860 5861 5861 5861 5861 5861 5860 5859 5857 5855 5853 5852 5850 5847 5845 5841 5839 5837 5835 5831 5828 5826 5822 5819 5813 5813 5809 5810 5804 5800 5798 5794 5790 5788 5784 5780
5848 5848 5849 5850 5851 5852 5851 5851 5850 5852 5853 5853 5854 5855 5855 5854 5852 5851 5849 5847 5845 5844 5842 5840 5836 5833 5831 5828 5825 5822 5819 5816 5811 5806 5803 5801 5801 5797 5791 5790 5786 5781 5778 5773 5769
5840 5840 5841 5842 5842 5844 5845 5844 5844 5844 5844 5845 5846 5847 5846 5846 5846 5845 5843 5840 5839 5838 5835 5833 5831 5827 5824 5821 5818 5815 5812 5808 5805 5799 5792 5791 5787 5791 5783 5780 5774 5770 5768 5765 5760
5831 5832 5833 5833 5834 5834 5835 5834 5834 5834 5835 5835 5837 5837 5838 5838 5838 5837 5836 5834 5832 5830 5827 5826 5824 5821 5818 5815 5810 5808 5804 5802 5798 5792 5786 5783 5776 5779 5778 5774 5766 5762 5759 5754 5748
5820 5822 5823 5824 5825 5825 5825 5825 5824 5823 5822 5829 5828 5829 5830 5831 5830 5830 5827 5825 5824 5822 5819 5817 5817 5813 5811 5808 5801 5800 5796 5792 5786 5782 5778 5772 5762 5764 5771 5768 5761 5756 5749 5744 5736
5810 5811 5812 5812 5815 5815 5815 5815 5814 5813 5807 5817 5818 5822 5824 5823 5823 5821 5819 5818 5816 5814 5811 5809 5808 5804 5802 5799 5793 5789 5789 5783 5777 5771 5764 5766 5746 5743 5756 5753 5749 5743 5738 5731 5724
5799 5800 5801 5801 5802 5804 5804 5804 5804 5805 5788 5801 5808 5812 5814 5815 5813 5813 5810 5808 5806 5804 5803 5802 5797 5794 5793 5789 5784 5780 5777 5773 5767 5763 5755 5759 5746 5734 5745 5738 5736 5732 5726 5718 5711
5789 5789 5789 5791 5791 5792 5792 5792 5792 5789 5774 5789 5797 5801 5803 5803 5800 5798 5798 5796 5795 5792 5790 5790 5786 5783 5781 5777 5773 5768 5765 5761 5756 5753 5743 5745 5736 5723 5733 5726 5723 5721 5712 5704 5698
5777 5778 5778 5778 5780 5780 5780 5780 5777 5764 5776 5780 5785 5788 5791 5790 5789 5788 5786 5784 5784 5781 5780 5777 5776 5772 5770 5765 5762 5758 5754 5748 5743 5739 5734 5728 5717 5718 5717 5716 5711 5708 5698 5691 5686
5762 5764 5767 5765 5767 5767 5767 5766 5755 5759 5767 5771 5774 5774 5774 5776 5777 5775 5773 5772 5773 5771 5769 5766 5763 5763 5760 5756 5752 5748 5746 5739 5731 5727 5720 5713 5705 5705 5703 5703 5699 5692 5685 5677 5673
5747 5749 5752 5751 5751 5752 5752 5745 5743 5753 5756 5761 5762 5760 5761 5763 5763 5760 5760 5759 5761 5761 5759 5753 5751 5748 5742 5741 5740 5740 5734 5727 5719 5717 5708 5701 5697 5688 5693 5689 5684 5674 5668 5662 5659
5731 5731 5736 5736 5734 5736 5734 5728 5730 5741 5743 5747 5747 5747 5745 5748 5747 5746 5745 5745 5746 5748 5746 5741 5737 5734 5729 5724 5725 5723 5720 5717 5706 5698 5690 5685 5677 5673 5678 5675 5669 5661 5654 5649 5644
5712 5714 5721 5722 5718 5717 5713 5713 5719 5728 5732 5731 5730 5731 5731 5731 5730 5729 5730 5731 5731 5730 5727 5725 5723 5725 5714 5713 5710 5707 5707 5704 5695 5683 5674 5667 5666 5663 5668 5658 5654 5648 5638 5636 5630
5695 5695 5699 5703 5702 5699 5697 5704 5708 5710 5717 5713 5714 5716 5716 5716 5714 5713 5713 5718 5718 5715 5712 5707 5705 5699 5699 5692 5692 5695 5696 5691 5681 5674 5656 5646 5649 5658 5651 5642 5639 5628 5623 5621 5615
5673 5678 5677 5676 5678 5683 5689 5689 5690 5691 5697 5701 5699 5698 5703 5699 5696 5698 5703 5707 5701 5697 5694 5693 5682 5678 5674 5674 5677 5676 5677 5676 5669 5652 5641 5637 5625 5638 5627 5624 5621 5610 5610 5605 5600
5655 5654 5656 5652 5662 5667 5670 5675 5676 5679 5677 5675 5681 5683 5682 5684 5684 5682 5685 5686 5685 5685 5682 5675 5667 5659 5661 5663 5659 5656 5661 5655 5645 5630 5637 5616 5612 5621 5617 5607 5598 5597 5595 5590 5586
5629 5636 5637 5633 5640 5644 5649 5659 5658 5655 5660 5661 5660 5667 5670 5663 5663 5661 5668 5667 5665 5664 5659 5652 5645 5645 5648 5647 5639 5641 5644 5637 5627 5626 5612 5613 5603 5601 5603 5592 5587 5585 5580 5576 5572
5606 5617 5613 5621 5621 5620 5621 5637 5639 5641 5641 5643 5643 5649 5647 5642 5647 5649 5645 5640 5641 5639 5636 5632 5626 5625 5624 5627 5621 5618 5622 5617 5616 5610 5599 5595 5582 5598 5584 5578 5573 5570 5567 5564 5559
5589 5593 5588 5589 5597 5593 5606 5616 5620 5624 5620 5623 5625 5622 5623 5630 5628 5626 5618 5618 5616 5617 5618 5615 5610 5609 5600 5610 5597 5598 5610 5607 5603 5599 5587 5577 5575 5577 5570 5562 5561 5557 5553 5546 5541